Simultaneous Nadir Overpasses (SNOs) Predictions

Prediction of SNOs between NOAA-19 and TERRA Satellite Orbit:

Table of predicted SNOs for the next 14.0 days since TLE Epoch: 8/21/2021
Index Date (NOAA-19) Time (NOAA-19) Lat,Lon (NOAA-19) SZA (NOAA-19 ) Date (TERRA) Time (TERRA) Lat,Lon (TERRA) SZA (TERRA ) Distance(km) Time Diff (sec)
1 08/21/2021 22:47:52 80.38,-127.79 70.21 08/21/2021 22:47:58 80.40,-127.68 70.24 2.84 6
2 08/24/2021 04:21:03 -80.39, -31.17 109.03 08/24/2021 04:21:40 -80.40, -31.15 109.01 0.47 37
3 08/24/2021 05:12:00 80.39, 136.15 70.99 08/24/2021 05:11:07 80.37, 136.21 70.96 2.75 53
4 08/26/2021 09:54:08 80.40, 65.47 71.76 08/26/2021 09:55:21 80.40, 65.41 71.78 1.30 73
5 08/26/2021 10:45:10 -80.39,-127.06 108.22 08/26/2021 10:44:48 -80.39,-126.96 108.22 2.01 22
6 08/28/2021 16:18:15 80.39, -30.28 72.59 08/28/2021 16:18:29 80.39, -30.43 72.57 2.79 14
7 08/30/2021 21:51:24 -80.39, 66.48 106.60 08/30/2021 21:52:10 -80.42, 66.40 106.57 3.03 46
8 08/30/2021 22:42:23 80.40,-126.39 73.41 08/30/2021 22:41:37 80.38,-126.30 73.38 2.64 46



Historial Predications of SNOs between NOAA-19 and TERRA
